Simultaneous Nadir Overpasses (SNOs) Predictions

Prediction of SNOs between GOES-15 and TERRA Satellite Orbit:

Table of predicted SNOs for the next 14.0 days since TLE Epoch: 5/8/2021
Index Date Time (GOES-15) GOES-15 Lat,Lon TERRA Lat,Lon Distance(km) Time Diff (sec)
1 05/09/2021 06:43:10 -0.00,-127.94 0.80,-124.13 432.76 80
2 05/09/2021 19:04:25 -0.00,-127.98 0.29,-129.29 148.75 80
3 05/11/2021 18:54:52 0.00,-128.05 -0.35,-126.33 194.88 80
4 05/12/2021 07:16:16 0.00,-128.05 -0.74,-131.53 396.03 80
5 05/14/2021 07:04:03 0.00,-128.10 -0.09,-128.58 53.48 80
6 05/16/2021 06:49:10 0.00,-128.15 0.56,-125.62 288.33 80
7 05/16/2021 19:10:24 -0.01,-128.18 0.53,-130.78 295.31 80
8 05/18/2021 19:00:51 -0.01,-128.23 -0.13,-127.83 46.12 80
9 05/20/2021 18:48:38 -0.01,-128.27 -0.72,-124.86 387.08 80
10 05/21/2021 07:10:01 0.02,-128.27 -0.36,-130.06 203.04 80
